EHI
7 7 7 6 7 9 10 10 9 8 7 5 2 0 0 0 1 3 2 1 1 2 2 3 4 4 3 3 4 4 4 4 4 3 2 1 0 0 0 0 0 0 0
7 7 7 7 7 9 10 10 10 8 5 3 1 0 0 0 1 2 4 3 2 1 2 2 3 4 5 4 5 5 5 4 4 3 2 1 1 0 0 0 0 0 0
7 7 7 7 7 9 10 10 9 7 5 2 1 1 1 1 1 2 4 5 3 2 2 2 3 4 5 4 4 5 5 4 3 3 4 3 2 1 0 0 0 0 0
6 7 7 7 8 9 10 9 8 6 6 4 3 2 1 1 1 1 2 3 3 3 2 2 3 3 3 2 1 3 5 4 2 3 3 3 3 1 0 0 0 0 0
6 6 7 8 9 10 9 7 6 7 6 5 4 3 1 1 1 1 1 1 1 2 2 1 2 2 2 1 0 1 3 3 3 3 3 3 2 1 0 0 0 0 1
6 6 6 7 9 10 8 6 6 6 6 4 3 3 2 1 0 1 1 0 0 1 1 1 1 1 1 0 0 0 1 2 3 5 5 4 2 1 0 0 0 0 1
5 5 5 5 7 9 8 7 6 6 5 4 3 3 2 1 0 0 0 0 0 0 0 0 0 0 0 0 0 0 0 2 4 6 6 6 4 2 1 0 1 1 1
2 2 3 4 7 8 8 7 7 6 6 5 4 3 1 0 0 0 0 0 0 0 0 0 0 0 0 1 1 0 0 2 5 6 6 5 4 4 3 2 2 2 2
1 1 2 3 5 6 6 7 7 6 6 6 4 2 1 0 0 0 0 0 0 0 0 0 0 0 1 2 2 1 0 1 4 5 5 5 5 5 5 4 3 3 4
2 1 1 1 3 5 5 5 4 5 5 4 3 1 0 0 0 0 0 0 0 0 0 0 0 0 1 2 2 1 0 0 2 3 4 4 4 5 5 4 4 4 5
1 1 0 1 2 4 5 4 3 3 4 3 2 1 0 1 0 0 0 0 0 0 0 0 1 1 1 1 1 1 0 0 0 1 2 3 4 4 4 4 4 5 5
0 0 0 0 1 2 3 4 3 3 3 3 3 1 0 1 1 1 1 1 0 0 0 1 2 1 0 0 1 0 0 0 0 0 1 2 3 3 4 4 4 4 4
0 0 0 0 0 1 2 4 4 3 3 3 3 1 1 2 2 2 1 1 0 0 0 1 1 1 0 1 1 1 0 0 0 0 0 1 1 2 2 3 3 3 2
0 0 0 0 0 0 1 3 4 3 3 3 2 1 1 1 1 1 1 0 0 0 0 0 0 0 1 2 2 1 1 0 0 0 0 0 0 1 1 1 1 1 1
0 0 0 0 0 0 1 3 4 4 3 3 3 1 0 0 0 0 0 0 0 0 0 0 0 0 2 3 3 2 2 1 0 0 0 0 0 0 0 0 0 0 0
0 0 0 0 0 0 1 3 4 3 3 3 3 1 0 0 0 0 0 0 0 0 0 0 0 0 1 1 2 2 2 1 0 0 0 0 0 0 0 0 0 0 0
0 0 0 0 0 0 1 2 2 2 2 2 2 0 0 0 0 0 0 0 0 1 1 1 2 1 1 1 1 1 1 1 0 0 0 0 0 0 0 0 0 0 0
0 0 0 0 0 0 0 1 1 1 2 2 1 0 0 0 0 1 1 1 1 2 2 2 2 2 1 1 0 0 0 0 0 0 0 0 0 0 0 0 0 0 0
0 1 1 0 0 0 0 0 0 1 2 2 1 0 0 0 1 2 2 2 3 3 3 1 1 2 1 0 0 0 0 0 0 0 0 0 0 0 0 0 0 0 0
1 1 1 0 0 0 0 0 0 1 2 1 0 0 0 0 1 2 3 3 3 3 2 1 0 0 0 0 0 0 0 0 0 0 0 0 0 0 0 0 0 0 0
0 1 1 0 0 0 0 0 0 1 1 1 0 0 0 0 1 1 1 2 2 2 2 1 0 0 0 0 0 0 0 0 1 1 1 1 1 1 1 0 0 0 0
0 0 0 0 0 0 0 0 0 0 0 0 0 0 0 0 0 0 0 1 1 1 1 0 0 0 0 0 0 0 0 0 1 2 2 1 1 2 1 0 0 0 0
0 0 0 0 0 0 0 0 0 0 0 0 0 0 0 0 0 0 0 0 0 0 0 0 0 0 0 0 0 0 0 0 0 1 1 1 1 1 1 1 0 0 0
0 0 0 0 0 0 0 0 0 0 0 0 0 0 0 0 0 0 0 0 0 0 0 0 0 0 0 0 0 0 0 0 0 0 0 1 1 2 2 2 1 0 0
0 0 0 0 0 0 0 0 0 0 0 1 0 0 0 0 0 0 0 0 0 0 0 0 0 0 0 0 0 0 0 0 0 0 0 0 1 2 2 2 1 0 0
0 0 0 0 0 0 0 0 0 0 0 1 0 0 0 0 0 0 0 0 0 0 0 0 0 0 0 0 0 0 0 0 0 0 0 0 0 1 1 1 1 0 0
Wind_Speed
1 1 1 1 2 2 3 3 3 3 3 4 4 4 4 4 4 4 3 7 5 5 5 6 6 6 6 6 6 6 6 6 6 6 6 7 7 7 8 8 7 7 8
1 1 2 2 2 1 1 2 2 3 3 2 3 4 4 4 4 4 4 5 7 6 5 4 5 6 6 7 7 7 6 6 6 6 7 7 7 8 8 9 8 8 8
1 2 2 2 1 1 2 3 3 3 3 3 4 4 4 4 3 4 4 4 5 7 6 5 5 5 6 7 7 8 7 7 7 7 7 7 7 8 8 8 8 8 8
2 2 2 1 1 2 2 2 3 3 3 3 3 3 3 3 4 5 4 4 3 3 7 7 5 5 6 7 7 7 7 8 8 8 7 7 6 7 8 8 8 8 8
3 3 2 1 2 2 2 2 2 3 3 3 3 3 3 3 4 5 4 4 4 4 4 6 7 6 7 7 7 8 8 8 8 8 8 8 7 7 7 7 8 8 8
3 3 2 3 3 2 2 2 2 2 2 3 3 2 3 3 3 4 5 4 5 6 5 5 5 7 8 8 8 8 9 9 9 8 8 8 8 7 7 7 7 8 8
3 3 2 3 3 2 3 3 3 3 3 2 3 3 3 4 3 3 4 4 4 5 4 5 5 4 5 9 9 8 8 9 9 9 9 8 8 7 7 7 7 8 8
3 3 3 3 3 3 3 3 3 3 2 3 3 3 3 4 5 4 4 4 4 4 5 6 5 5 5 4 6 9 8 8 8 9 9 8 8 7 7 7 7 8 8
4 3 3 3 3 3 3 3 4 5 3 3 3 3 3 2 2 4 4 3 3 4 4 4 6 6 6 5 5 8 8 7 8 9 8 8 7 7 7 7 8 8 8
5 4 4 4 4 3 3 4 3 4 5 3 3 3 3 3 3 2 4 4 4 4 5 5 5 6 6 6 5 3 6 7 7 8 8 8 8 8 8 8 9 9 9
5 5 5 4 4 4 3 4 3 4 4 4 3 3 4 3 5 4 4 3 4 4 4 5 5 5 5 6 5 5 6 6 7 7 7 8 9 9 10 10 10 10 10
4 5 5 5 5 4 4 5 4 5 4 4 4 4 4 4 5 4 4 5 4 4 4 4 5 4 5 5 6 4 5 6 7 7 7 8 9 9 10 11 11 10 10
4 5 5 4 4 4 5 5 5 4 5 5 6 5 4 5 4 4 4 5 5 4 4 5 5 4 4 4 4 5 6 7 7 7 7 8 8 9 9 10 10 10 9
3 3 5 5 5 5 5 5 5 5 5 5 6 5 4 5 4 4 4 5 5 5 5 4 3 4 3 4 2 5 6 7 7 8 8 8 8 9 9 10 10 9 9
3 4 5 5 5 5 5 5 5 5 4 5 5 5 5 4 4 4 4 5 5 6 5 4 4 3 3 3 2 4 5 6 8 8 8 8 9 9 9 10 10 9 9
3 4 5 5 5 5 5 6 5 5 5 5 4 4 5 4 4 4 4 4 5 6 6 3 2 2 3 3 3 5 5 5 8 8 8 8 9 9 10 10 10 10 9
4 5 5 5 5 5 5 5 5 5 6 5 5 5 5 5 4 3 4 4 4 5 6 4 3 2 3 5 3 4 5 6 6 9 9 8 8 9 9 10 10 10 10
4 5 5 5 5 5 4 5 5 5 5 5 5 5 5 4 4 4 3 4 4 4 5 6 4 3 3 4 4 5 5 5 5 7 9 8 8 9 9 9 10 9 9
4 4 5 5 5 4 5 5 5 5 5 5 5 5 6 5 5 4 4 4 4 4 5 5 5 3 3 3 4 5 5 4 5 4 8 9 9 9 9 8 9 9 9
4 4 5 5 5 5 5 5 5 5 5 5 5 5 6 6 5 5 4 5 4 5 5 5 4 4 3 3 4 4 4 4 4 4 3 4 7 9 10 10 10 10 10
4 4 5 5 5 5 4 4 5 6 5 5 5 5 5 4 4 4 4 4 4 4 4 4 4 3 3 3 3 3 4 4 3 3 4 4 4 5 6 9 10 10 10
3 3 4 5 5 4 1 2 5 5 5 5 5 5 5 5 5 6 6 5 5 5 5 4 4 4 4 4 3 4 4 4 4 2 3 4 3 4 4 4 5 9 9
3 4 4 4 4 3 3 4 5 6 5 5 5 4 5 3 5 5 6 9 7 7 6 6 6 6 5 4 4 5 4 4 5 4 4 5 4 4 4 3 4 6 8
3 3 4 4 4 3 4 4 4 6 5 4 4 4 4 4 4 5 6 5 5 6 7 7 6 6 5 5 5 5 5 5 6 5 4 5 4 4 4 3 5 7 7
3 4 4 4 4 3 4 4 5 5 4 5 4 4 4 4 1 3 5 5 5 4 5 4 3 3 3 3 4 4 5 5 5 4 4 5 5 4 4 4 4 8 8
4 4 3 4 4 3 4 5 5 5 4 4 4 4 2 2 1 2 4 5 5 4 3 2 3 5 5 4 5 5 5 5 5 4 2 4 4 4 4 3 3 3 5
Wind_Direction
198 191 208 229 226 208 201 205 207 192 211 211 219 218 224 233 239 228 174 154 175 194 203 210 210 207 208 205 203 207 200 196 194 193 197 199 197 199 199 200 201 203 205
193 215 205 217 225 226 235 230 210 211 228 224 227 225 232 229 226 229 227 178 177 189 199 211 217 210 208 211 206 207 201 196 198 197 200 202 203 205 207 208 210 212 210
212 220 215 210 202 203 208 226 218 224 221 218 224 228 230 229 225 231 231 227 192 180 189 204 217 215 213 214 211 210 207 203 203 203 201 205 209 209 211 212 212 216 217
225 232 222 205 198 206 211 214 230 227 226 233 232 237 233 226 222 224 224 225 232 214 186 186 204 211 215 216 215 214 214 212 207 202 200 204 206 207 210 213 214 216 218
222 235 224 188 216 210 215 230 212 241 223 232 229 227 236 234 218 217 220 225 226 235 229 179 191 206 214 217 218 218 219 219 214 210 209 210 210 209 210 213 215 218 221
216 230 210 194 212 202 213 217 215 234 249 239 240 228 240 233 225 214 220 214 218 225 228 226 203 196 207 218 222 223 223 220 219 218 217 217 217 218 216 216 220 221 224
211 226 228 200 214 197 217 213 214 202 220 226 231 217 214 214 220 220 221 221 213 220 227 229 234 230 199 201 215 222 226 225 220 219 217 218 217 219 219 219 223 226 225
214 217 222 223 207 200 203 210 216 229 219 212 243 240 219 199 206 217 215 215 223 222 223 221 223 230 243 220 187 207 223 228 226 221 220 220 219 218 220 220 222 225 223
220 230 218 226 217 220 200 216 210 221 227 219 236 262 258 241 212 197 221 226 227 234 233 227 224 223 230 239 221 194 205 219 225 226 225 223 220 220 221 223 224 226 227
217 215 215 213 221 225 203 221 203 223 233 232 210 245 282 313 272 233 212 209 222 237 242 244 234 223 225 231 223 223 198 208 219 226 228 226 226 225 224 225 226 227 228
214 215 212 212 217 223 218 231 214 229 233 246 243 229 228 239 252 264 258 245 235 231 231 239 246 242 232 231 232 213 189 204 218 222 225 227 227 228 228 228 230 229 231
210 209 215 216 217 220 216 224 227 227 245 252 254 246 239 241 239 243 253 251 253 246 240 240 239 234 233 229 225 178 184 205 215 219 223 227 228 230 228 227 230 231 231
210 203 217 219 224 223 224 226 226 237 236 239 241 243 248 253 259 258 258 261 264 257 239 231 224 225 230 234 220 178 198 205 213 218 223 228 228 229 228 227 228 230 230
221 202 216 221 225 228 230 226 231 228 230 236 240 243 253 253 249 248 253 259 260 254 240 236 220 223 236 240 195 204 214 196 210 216 221 226 227 227 227 225 225 226 226
213 207 214 222 226 227 231 233 236 229 227 233 234 227 238 248 244 245 245 249 260 264 257 226 222 211 232 239 206 233 235 189 203 214 221 226 229 228 226 224 223 224 224
218 212 214 219 225 227 229 235 237 226 228 229 233 238 243 249 250 248 250 252 254 262 268 264 247 244 248 249 213 244 247 196 205 213 220 224 227 228 226 223 221 222 224
216 216 218 221 225 226 225 227 236 230 230 232 232 231 235 245 246 249 246 249 250 252 257 263 264 252 245 261 255 253 245 240 214 197 208 219 225 229 226 223 223 224 226
220 216 216 219 225 221 219 224 232 233 231 233 234 232 235 231 230 249 253 252 255 258 256 260 258 251 244 252 256 259 256 245 246 191 196 212 221 225 225 223 221 221 223
218 217 216 217 224 222 221 227 235 240 239 239 239 239 238 235 232 235 244 253 254 251 252 253 254 250 249 249 251 252 255 256 256 202 191 205 212 216 218 217 215 216 219
220 217 220 225 228 230 229 233 239 241 240 242 244 246 242 239 238 240 241 248 255 256 249 248 248 246 239 236 239 249 251 243 249 249 234 216 199 205 212 212 212 214 217
224 221 224 226 228 229 229 238 245 242 236 238 239 241 240 241 249 254 262 256 251 253 253 251 255 257 253 249 249 254 259 261 249 251 255 236 213 217 212 211 211 213 215
227 223 228 229 232 237 158 223 255 254 247 243 243 244 236 223 221 221 239 257 268 260 264 267 263 265 270 268 271 270 266 261 263 245 256 259 250 247 241 238 200 200 212
219 224 230 234 235 221 176 207 237 254 246 245 247 249 254 240 233 244 222 219 231 243 252 264 271 275 276 277 274 267 265 269 274 274 263 265 257 253 251 234 174 193 209
224 230 238 243 242 218 174 204 227 237 245 244 246 251 259 263 259 267 264 250 242 230 229 239 259 270 279 286 271 268 267 259 262 251 245 260 262 258 254 236 180 196 206
228 235 232 241 244 221 173 192 225 239 236 243 248 250 260 257 277 265 259 259 258 245 210 208 240 266 298 308 292 270 258 256 258 256 239 251 260 263 257 245 203 191 205
230 240 239 244 248 245 165 184 219 248 247 248 238 227 202 246 298 243 259 266 266 273 272 238 225 231 240 235 227 243 258 262 263 266 247 251 259 268 259 247 244 217 215